DINGO EDDW-EDXW

Flight info

Callsign DINGO
Flight time 0h 37m
Altitude 4500
Route N CUXHAVEN SANKPETERORDING S1 S2
Aircraft BE58/L-SBDFGRWY/S

Departure

Time 2026-04-14 10:38
Airport Bremen Airport (EDDW)

Arrival

Time 2026-04-14 11:15
Airport Westerland Sylt Airport (EDXW)
Time Latitude Longitude Altitude Speed Heading
2026-04-14 10:20 53.05028 8.78141 16 ft 0 kts 99°
2026-04-14 10:33 53.05027 8.78157 16 ft 0 kts 102°
2026-04-14 10:33 53.05015 8.78204 16 ft 12 kts 116°
2026-04-14 10:33 53.04911 8.78290 16 ft 21 kts 136°
2026-04-14 10:33 53.04849 8.78509 15 ft 20 kts 92°
2026-04-14 10:34 53.04859 8.79081 15 ft 27 kts 87°
2026-04-14 10:34 53.04842 8.79288 17 ft 10 kts 153°
2026-04-14 10:34 53.04831 8.79294 17 ft 0 kts 170°
2026-04-14 10:37 53.04719 8.79301 15 ft 17 kts 178°
2026-04-14 10:37 53.04694 8.79023 17 ft 60 kts 268°
2026-04-14 10:37 53.04667 8.77999 82 ft 108 kts 270°
2026-04-14 10:38 53.04667 8.76714 447 ft 115 kts 278°
2026-04-14 10:38 53.04996 8.75462 767 ft 128 kts 314°
2026-04-14 10:38 53.05748 8.74554 1029 ft 137 kts 330°
2026-04-14 10:38 53.06690 8.74232 1310 ft 145 kts
2026-04-14 10:39 53.07707 8.74384 1514 ft 149 kts
2026-04-14 10:39 53.08740 8.74390 1654 ft 154 kts
2026-04-14 10:39 53.09839 8.74301 1667 ft 161 kts 355°
2026-04-14 10:39 53.10982 8.74149 1612 ft 169 kts 360°
2026-04-14 10:40 53.12145 8.74152 1762 ft 164 kts 359°
2026-04-14 10:40 53.13292 8.73944 1785 ft 169 kts 354°
2026-04-14 10:40 53.14478 8.73741 1805 ft 172 kts 355°
2026-04-14 10:40 53.15663 8.73557 1871 ft 169 kts 356°
2026-04-14 10:41 53.16832 8.73449 1961 ft 169 kts 358°
2026-04-14 10:41 53.18032 8.73366 2014 ft 176 kts 359°
2026-04-14 10:41 53.19268 8.73309 2019 ft 182 kts 360°
2026-04-14 10:41 53.20549 8.73245 2024 ft 186 kts 359°
2026-04-14 10:42 53.21849 8.73158 2019 ft 188 kts 358°
2026-04-14 10:42 53.23158 8.73074 2024 ft 188 kts 359°
2026-04-14 10:42 53.24469 8.73002 2011 ft 190 kts 359°
2026-04-14 10:42 53.25794 8.72920 2021 ft 191 kts 359°
2026-04-14 10:43 53.27125 8.72852 2012 ft 191 kts 359°
2026-04-14 10:43 53.28452 8.72781 2009 ft 192 kts 360°
2026-04-14 10:43 53.29796 8.72709 2009 ft 193 kts 359°
2026-04-14 10:43 53.31140 8.72629 2001 ft 193 kts 359°
2026-04-14 10:44 53.32480 8.72552 2001 ft 192 kts 359°
2026-04-14 10:44 53.33815 8.72465 2003 ft 192 kts 360°
2026-04-14 10:44 53.35144 8.72394 2000 ft 191 kts 359°
2026-04-14 10:44 53.36476 8.72327 1993 ft 191 kts
2026-04-14 10:45 53.37804 8.72248 1983 ft 191 kts 359°
2026-04-14 10:45 53.39132 8.72163 2001 ft 192 kts 359°
2026-04-14 10:45 53.40474 8.72088 1991 ft 193 kts
2026-04-14 10:45 53.41798 8.72010 1994 ft 192 kts
2026-04-14 10:46 53.43138 8.71932 1997 ft 192 kts 360°
2026-04-14 10:46 53.44479 8.71856 1990 ft 194 kts 360°
2026-04-14 10:46 53.45827 8.71779 1990 ft 193 kts
2026-04-14 10:46 53.47162 8.71699 1989 ft 191 kts
2026-04-14 10:47 53.48490 8.71622 1993 ft 192 kts
2026-04-14 10:47 53.49830 8.71543 1990 ft 192 kts
2026-04-14 10:47 53.50711 8.71491 1996 ft 191 kts
2026-04-14 10:47 53.52043 8.71413 1990 ft 192 kts
2026-04-14 10:48 53.53372 8.71338 2000 ft 191 kts 360°
2026-04-14 10:48 53.54705 8.71260 1990 ft 191 kts
2026-04-14 10:48 53.56036 8.71181 1997 ft 192 kts
2026-04-14 10:48 53.57368 8.71105 1995 ft 192 kts
2026-04-14 10:49 53.58702 8.71027 1996 ft 192 kts
2026-04-14 10:49 53.60036 8.70948 1996 ft 191 kts
2026-04-14 10:49 53.61359 8.70872 1994 ft 190 kts
2026-04-14 10:49 53.62680 8.70791 1995 ft 189 kts
2026-04-14 10:50 53.64000 8.70714 1998 ft 189 kts
2026-04-14 10:50 53.65300 8.70639 2020 ft 189 kts
2026-04-14 10:50 53.66509 8.70573 2653 ft 162 kts
2026-04-14 10:50 53.67578 8.70502 3184 ft 153 kts
2026-04-14 10:51 53.68712 8.70437 3194 ft 171 kts
2026-04-14 10:51 53.69916 8.70367 3407 ft 173 kts
2026-04-14 10:51 53.71143 8.70299 3500 ft 182 kts
2026-04-14 10:51 53.72435 8.70225 3505 ft 189 kts
2026-04-14 10:52 53.73764 8.70145 3512 ft 192 kts
2026-04-14 10:52 53.75102 8.70059 3506 ft 194 kts
2026-04-14 10:52 53.76462 8.69976 3502 ft 197 kts
2026-04-14 10:52 53.77841 8.69890 3499 ft 200 kts
2026-04-14 10:53 53.79230 8.69813 3510 ft 200 kts
2026-04-14 10:53 53.80635 8.69745 3501 ft 204 kts
2026-04-14 10:53 53.82060 8.69649 3502 ft 205 kts 360°
2026-04-14 10:53 53.83493 8.69562 3493 ft 206 kts
2026-04-14 10:54 53.84919 8.69370 3494 ft 206 kts 352°
2026-04-14 10:54 53.86316 8.68811 3500 ft 206 kts 348°
2026-04-14 10:54 53.87701 8.68193 3497 ft 205 kts 349°
2026-04-14 10:54 53.89087 8.67797 3567 ft 197 kts 359°
2026-04-14 10:55 53.90415 8.67688 3802 ft 188 kts
2026-04-14 10:55 53.91701 8.67779 3992 ft 185 kts
2026-04-14 10:55 53.93010 8.67937 3985 ft 191 kts 10°
2026-04-14 10:55 53.94350 8.68137 3986 ft 195 kts
2026-04-14 10:56 53.95713 8.68280 3991 ft 197 kts
2026-04-14 10:56 53.97078 8.68337 4158 ft 192 kts
2026-04-14 10:56 53.98386 8.68251 4403 ft 184 kts 360°
2026-04-14 10:56 53.99651 8.68124 4486 ft 187 kts
2026-04-14 10:57 54.00972 8.67988 4491 ft 193 kts 360°
2026-04-14 10:57 54.02326 8.67846 4497 ft 197 kts 359°
2026-04-14 10:57 54.03699 8.67700 4497 ft 199 kts 360°
2026-04-14 10:57 54.05087 8.67573 4498 ft 200 kts
2026-04-14 10:58 54.06486 8.67442 4499 ft 202 kts 360°
2026-04-14 10:58 54.07888 8.67306 4500 ft 202 kts 360°
2026-04-14 10:58 54.09299 8.67170 4497 ft 203 kts
2026-04-14 10:58 54.10711 8.67038 4498 ft 203 kts
2026-04-14 10:59 54.12123 8.66952 4495 ft 202 kts
2026-04-14 10:59 54.13513 8.67237 4494 ft 201 kts 11°
2026-04-14 10:59 54.14647 8.67563 4495 ft 201 kts 13°
2026-04-14 10:59 54.15927 8.67943 4495 ft 202 kts 13°
2026-04-14 11:00 54.17309 8.68376 4492 ft 202 kts 13°
2026-04-14 11:00 54.18690 8.68816 4494 ft 201 kts 14°
2026-04-14 11:00 54.20049 8.69251 4494 ft 202 kts 13°
2026-04-14 11:00 54.21447 8.69688 4493 ft 202 kts 13°
2026-04-14 11:01 54.22825 8.69978 4490 ft 203 kts
2026-04-14 11:01 54.24241 8.69773 4495 ft 206 kts 350°
2026-04-14 11:01 54.25631 8.69015 4493 ft 209 kts 340°
2026-04-14 11:01 54.26943 8.68011 4496 ft 210 kts 338°
2026-04-14 11:02 54.28233 8.66833 4499 ft 211 kts 331°
2026-04-14 11:02 54.29411 8.65285 4486 ft 214 kts 321°
2026-04-14 11:02 54.30553 8.63631 4495 ft 216 kts 324°
2026-04-14 11:02 54.31782 8.62165 4488 ft 214 kts 330°
2026-04-14 11:03 54.33048 8.60802 4484 ft 215 kts 330°
2026-04-14 11:03 54.34316 8.59447 4483 ft 214 kts 330°
2026-04-14 11:03 54.35581 8.58102 4484 ft 213 kts 330°
2026-04-14 11:03 54.36837 8.56769 4486 ft 212 kts 330°
2026-04-14 11:04 54.38095 8.55459 4485 ft 211 kts 334°
2026-04-14 11:04 54.39435 8.54448 4483 ft 210 kts 341°
2026-04-14 11:04 54.40799 8.53569 4482 ft 209 kts 343°
2026-04-14 11:04 54.42171 8.52734 4481 ft 209 kts 343°
2026-04-14 11:05 54.43542 8.51865 4274 ft 218 kts 342°
2026-04-14 11:05 54.44977 8.50932 4099 ft 222 kts 342°
2026-04-14 11:05 54.46434 8.50000 3923 ft 225 kts 342°
2026-04-14 11:05 54.47926 8.49046 3744 ft 227 kts 342°
2026-04-14 11:06 54.49388 8.48111 3572 ft 227 kts 342°
2026-04-14 11:06 54.50874 8.47157 3398 ft 230 kts 342°
2026-04-14 11:06 54.52378 8.46190 3209 ft 230 kts 342°
2026-04-14 11:06 54.53882 8.45226 3031 ft 230 kts 342°
2026-04-14 11:07 54.55367 8.44270 2994 ft 224 kts 342°
2026-04-14 11:07 54.56803 8.43348 2988 ft 216 kts 342°
2026-04-14 11:07 54.58190 8.42455 2982 ft 211 kts 342°
2026-04-14 11:07 54.59549 8.41571 2949 ft 210 kts 341°
2026-04-14 11:08 54.60924 8.40680 2823 ft 212 kts 342°
2026-04-14 11:08 54.62336 8.39773 2582 ft 220 kts 342°
2026-04-14 11:08 54.63750 8.38860 2504 ft 216 kts 342°
2026-04-14 11:08 54.65136 8.37961 2498 ft 209 kts 342°
2026-04-14 11:09 54.66481 8.37088 2499 ft 204 kts 341°
2026-04-14 11:09 54.67806 8.36225 2485 ft 202 kts 342°
2026-04-14 11:09 54.69142 8.35365 2314 ft 207 kts 342°
2026-04-14 11:10 54.71858 8.33605 1938 ft 206 kts 342°
2026-04-14 11:10 54.73178 8.32743 1670 ft 198 kts 342°
2026-04-14 11:10 54.74412 8.31941 1498 ft 178 kts 343°
2026-04-14 11:10 54.75543 8.31652 1486 ft 155 kts
2026-04-14 11:11 54.76632 8.31730 1219 ft 158 kts
2026-04-14 11:11 54.77714 8.31788 1072 ft 156 kts
2026-04-14 11:11 54.78814 8.31710 929 ft 157 kts 358°
2026-04-14 11:11 54.79853 8.31656 1076 ft 143 kts
2026-04-14 11:12 54.80819 8.31652 1198 ft 136 kts
2026-04-14 11:12 54.81792 8.31656 1076 ft 144 kts
2026-04-14 11:12 54.82810 8.31661 1008 ft 146 kts
2026-04-14 11:12 54.83817 8.31675 1006 ft 146 kts
2026-04-14 11:13 54.84796 8.32113 995 ft 146 kts 27°
2026-04-14 11:13 54.85650 8.33097 960 ft 150 kts 39°
2026-04-14 11:13 54.86461 8.34250 913 ft 151 kts 40°
2026-04-14 11:13 54.87268 8.35425 862 ft 153 kts 39°
2026-04-14 11:14 54.88133 8.36470 748 ft 145 kts 21°
2026-04-14 11:14 54.89020 8.36665 485 ft 121 kts 340°
2026-04-14 11:14 54.89731 8.36132 256 ft 102 kts 320°
2026-04-14 11:14 54.90252 8.35384 99 ft 93 kts 317°
2026-04-14 11:15 54.90725 8.34787 30 ft 70 kts 320°
2026-04-14 11:15 54.91063 8.34377 32 ft 53 kts 324°
2026-04-14 11:15 54.91349 8.34020 29 ft 51 kts 324°
2026-04-14 11:15 54.91638 8.33657 30 ft 38 kts 320°
2026-04-14 11:16 54.91706 8.33450 30 ft 17 kts 291°
2026-04-14 11:16 54.91741 8.33312 29 ft 6 kts 285°
2026-04-14 11:16 54.91761 8.33227 29 ft 12 kts 296°
2026-04-14 11:16 54.91863 8.33228 29 ft 21 kts 29°
2026-04-14 11:17 54.91951 8.33424 29 ft 22 kts 85°
2026-04-14 11:17 54.91981 8.33679 35 ft 17 kts 56°
2026-04-14 11:17 54.92018 8.33828 40 ft 12 kts 80°
2026-04-14 11:17 54.92034 8.33919 42 ft 8 kts 61°
2026-04-14 11:18 54.92044 8.34021 44 ft 6 kts 341°
2026-04-14 11:18 54.92047 8.34014 44 ft 0 kts 266°